����,���ϕ���(m/s),���ϕ���,�ő�u�ԕ���(m/s),�ő啗��������,�C��(��),���x(%),10���Ԉړ��ώZ�J��(mm),1���Ԉړ��ώZ�J��(mm),���J��(mm),�݌v�J��(mm),����(���ώZ)(MJ/m2),����(���ώZ)(min),���n�C��(hPa),�C�ʋC��(hPa)
2020-02-03T00:00:00+09:00,0.4,�k��,0.7,���k��,1.5,89.5,0,0,0,0,8.72,187,1008.9,1023.5
2020-02-03T00:01:00+09:00,0.4,�k��,0.7,���k��,1.5,89.5,0,0,0,0,0,0,1008.8,1023.4
2020-02-03T00:02:00+09:00,0.4,�k��,0.7,���k��,1.5,89.6,0,0,0,0,0,0,1008.8,1023.4
2020-02-03T00:03:00+09:00,0.4,�k��,0.7,���k��,1.5,89.7,0,0,0,0,0,0,1008.7,1023.3
2020-02-03T00:04:00+09:00,0.4,�k��,0.7,���k��,1.6,89.9,0,0,0,0,0,0,1008.7,1023.3
2020-02-03T00:05:00+09:00,0.4,�k�k��,0.7,�k�k��,1.6,90.2,0,0,0,0,0,0,1008.8,1023.4
2020-02-03T00:06:00+09:00,0.4,�k�k��,0.7,�k�k��,1.6,90.1,0,0,0,0,0,0,1008.8,1023.4
2020-02-03T00:07:00+09:00,0.3,�k�k��,0.7,�k�k��,1.6,90.3,0,0,0,0,0,0,1008.8,1023.4
2020-02-03T00:08:00+09:00,0.3,�k�k��,0.7,�k�k��,1.5,90.2,0,0,0,0,0,0,1008.7,1023.3
2020-02-03T00:09:00+09:00,0.3,�k�k��,0.7,�k�k��,1.6,90,0,0,0,0,0,0,1008.7,1023.3
2020-02-03T00:10:00+09:00,0.3,�k,0.7,�k�k��,1.5,90.1,0,0,0,0,0,0,1008.7,1023.3
2020-02-03T00:11:00+09:00,0.3,�k�k��,0.7,�k�k��,1.6,90.3,0,0,0,0,0,0,1008.8,1023.4
2020-02-03T00:12:00+09:00,0.3,�k�k��,0.9,���k��,1.5,90.2,0,0,0,0,0,0,1008.8,1023.4
2020-02-03T00:13:00+09:00,0.3,�k�k��,0.9,���k��,1.4,90.1,0,0,0,0,0,0,1008.8,1023.4
2020-02-03T00:14:00+09:00,0.4,�k��,0.9,���k��,1.5,90.1,0,0,0,0,0,0,1008.7,1023.3
2020-02-03T00:15:00+09:00,0.3,�k��,0.9,���k��,1.5,90.2,0,0,0,0,0,0,1008.8,1023.4
2020-02-03T00:16:00+09:00,0.4,�k��,0.9,���k��,1.5,90.4,0,0,0,0,0,0,1008.8,1023.4
2020-02-03T00:17:00+09:00,0.4,���k��,0.9,���k��,1.5,90.5,0,0,0,0,0,0,1008.8,1023.4
2020-02-03T00:18:00+09:00,0.4,���k��,0.9,���k��,1.5,90.8,0,0,0,0,0,0,1008.7,1023.3
2020-02-03T00:19:00+09:00,0.4,���k��,0.9,���k��,1.5,90.7,0,0,0,0,0,0,1008.7,1023.3
2020-02-03T00:20:00+09:00,0.4,���k��,0.9,���k��,1.5,90.7,0,0,0,0,0,0,1008.7,1023.3
2020-02-03T00:21:00+09:00,0.4,���k��,0.9,���k��,1.4,90.5,0,0,0,0,0,0,1008.7,1023.3
2020-02-03T00:22:00+09:00,0.4,���k��,0.8,���k��,1.5,90.6,0,0,0,0,0,0,1008.7,1023.3
2020-02-03T00:23:00+09:00,0.4,���k��,0.8,���k��,1.5,90.8,0,0,0,0,0,0,1008.7,1023.3
2020-02-03T00:24:00+09:00,0.4,���k��,0.8,���k��,1.4,90.8,0,0,0,0,0,0,1008.7,1023.3
2020-02-03T00:25:00+09:00,0.4,���k��,1.2,���k��,1.3,90.6,0,0,0,0,0,0,1008.7,1023.3
2020-02-03T00:26:00+09:00,0.5,���k��,1.2,���k��,1.3,90.4,0,0,0,0,0,0,1008.7,1023.3
2020-02-03T00:27:00+09:00,0.5,���k��,1.2,���k��,1.3,90.5,0,0,0,0,0,0,1008.6,1023.2
2020-02-03T00:28:00+09:00,0.5,���k��,1.2,���k��,1.3,90.4,0,0,0,0,0,0,1008.6,1023.2
2020-02-03T00:29:00+09:00,0.6,���k��,1.2,���k��,1.2,90.4,0,0,0,0,0,0,1008.6,1023.2
2020-02-03T00:30:00+09:00,0.6,���k��,1.2,���k��,1.3,90.4,0,0,0,0,0,0,1008.6,1023.2
2020-02-03T00:31:00+09:00,0.7,���k��,1.2,���k��,1.1,90.2,0,0,0,0,0,0,1008.6,1023.2
2020-02-03T00:32:00+09:00,0.8,���k��,1.2,���k��,1.2,90,0,0,0,0,0,0,1008.6,1023.2
2020-02-03T00:33:00+09:00,0.8,���k��,1.2,���k��,1.1,90.1,0,0,0,0,0,0,1008.6,1023.2
2020-02-03T00:34:00+09:00,0.8,���k��,1.2,���k��,1,89.6,0,0,0,0,0,0,1008.6,1023.3
2020-02-03T00:35:00+09:00,0.8,���k��,1.2,���k��,1,89.5,0,0,0,0,0,0,1008.6,1023.3
2020-02-03T00:36:00+09:00,0.7,���k��,1.2,���k��,1.2,89.9,0,0,0,0,0,0,1008.6,1023.2
2020-02-03T00:37:00+09:00,0.7,���k��,1.2,���k��,1.1,90.1,0,0,0,0,0,0,1008.5,1023.1
2020-02-03T00:38:00+09:00,0.6,���k��,1.2,���k��,1.1,89.9,0,0,0,0,0,0,1008.6,1023.2
2020-02-03T00:39:00+09:00,0.5,���k��,1,���k��,1.1,89.9,0,0,0,0,0,0,1008.5,1023.1
2020-02-03T00:40:00+09:00,0.5,���k��,1,���k��,1.1,89.8,0,0,0,0,0,0,1008.6,1023.2
2020-02-03T00:41:00+09:00,0.5,���k��,1,���k��,1,89.9,0,0,0,0,0,0,1008.6,1023.3
2020-02-03T00:42:00+09:00,0.4,���k��,0.8,���k��,1,89.5,0,0,0,0,0,0,1008.6,1023.3
2020-02-03T00:43:00+09:00,0.4,���k��,0.8,��,1,89.7,0,0,0,0,0,0,1008.5,1023.2
2020-02-03T00:44:00+09:00,0.5,���k��,0.8,��,0.9,89.5,0,0,0,0,0,0,1008.5,1023.2
2020-02-03T00:45:00+09:00,0.5,���k��,0.9,��,1,89.7,0,0,0,0,0,0,1008.5,1023.2
2020-02-03T00:46:00+09:00,0.6,���k��,1.1,��,0.9,89.6,0,0,0,0,0,0,1008.5,1023.2
2020-02-03T00:47:00+09:00,0.6,���k��,1.1,��,0.9,89.5,0,0,0,0,0,0,1008.5,1023.2
2020-02-03T00:48:00+09:00,0.7,���k��,1.1,��,1,89.7,0,0,0,0,0,0,1008.4,1023.1
2020-02-03T00:49:00+09:00,0.7,���k��,1.1,��,1.1,90.2,0,0,0,0,0,0,1008.4,1023
2020-02-03T00:50:00+09:00,0.7,���k��,1.1,��,1.1,90.4,0,0,0,0,0,0,1008.4,1023
2020-02-03T00:51:00+09:00,0.7,���k��,1.1,��,1,89.8,0,0,0,0,0,0,1008.3,1022.9
2020-02-03T00:52:00+09:00,0.7,���k��,1.1,��,1.1,90,0,0,0,0,0,0,1008.4,1023
2020-02-03T00:53:00+09:00,0.7,���k��,1.1,��,1.1,90.3,0,0,0,0,0,0,1008.4,1023
2020-02-03T00:54:00+09:00,0.7,���k��,1.1,��,1.2,90.3,0,0,0,0,0,0,1008.4,1023
2020-02-03T00:55:00+09:00,0.7,���k��,1.1,��,1.1,90.1,0,0,0,0,0,0,1008.4,1023
2020-02-03T00:56:00+09:00,0.6,�k��,1,���k��,1.2,90,0,0,0,0,0,0,1008.4,1023
2020-02-03T00:57:00+09:00,0.6,�k��,1,���k��,1.2,90.4,0,0,0,0,0,0,1008.4,1023
2020-02-03T00:58:00+09:00,0.5,�k��,0.9,���k��,1,89.7,0,0,0,0,0,0,1008.3,1022.9
2020-02-03T00:59:00+09:00,0.5,�k��,0.8,���k��,1,89.5,0,0,0,0,0,0,1008.3,1022.9
2020-02-03T01:00:00+09:00,0.4,�k��,0.8,���k��,1.2,89.9,0,0,0,0,0,0,1008.3,1022.9
2020-02-03T01:01:00+09:00,0.4,�k��,0.7,���k��,1.1,90,0,0,0,0,0,0,1008.3,1022.9
2020-02-03T01:02:00+09:00,0.4,�k�k��,0.7,���k��,1.1,90,0,0,0,0,0,0,1008.3,1022.9
2020-02-03T01:03:00+09:00,0.4,�k�k��,0.6,�k,1.1,90.2,0,0,0,0,0,0,1008.3,1022.9
2020-02-03T01:04:00+09:00,0.4,�k�k��,0.6,�k,1.2,90.4,0,0,0,0,0,0,1008.3,1022.9
2020-02-03T01:05:00+09:00,0.3,�k�k��,0.6,�k,1.1,90.5,0,0,0,0,0,0,1008.3,1022.9
2020-02-03T01:06:00+09:00,0.3,�k�k��,0.6,�k,1.1,90.5,0,0,0,0,0,0,1008.2,1022.8
2020-02-03T01:07:00+09:00,0.3,�k�k��,0.6,�k,1.1,90.5,0,0,0,0,0,0,1008.2,1022.8
2020-02-03T01:08:00+09:00,0.3,�k�k��,0.6,�k,1.2,90.6,0,0,0,0,0,0,1008.2,1022.8
2020-02-03T01:09:00+09:00,0.3,�k�k��,0.6,�k,1.1,90.8,0,0,0,0,0,0,1008.2,1022.8
2020-02-03T01:10:00+09:00,0.3,�k�k��,0.6,�k,1.2,90.7,0,0,0,0,0,0,1008.2,1022.8
2020-02-03T01:11:00+09:00,0.3,�k�k��,0.6,�k,1.2,90.9,0,0,0,0,0,0,1008.2,1022.8
2020-02-03T01:12:00+09:00,0.2,�É�,0.6,�k,1.1,90.8,0,0,0,0,0,0,1008.2,1022.8
2020-02-03T01:13:00+09:00,0.2,�É�,0.6,�k,1.1,90.7,0,0,0,0,0,0,1008.2,1022.8
2020-02-03T01:14:00+09:00,0.2,�É�,0.6,�k,1,90.8,0,0,0,0,0,0,1008.2,1022.8
2020-02-03T01:15:00+09:00,0.3,�k�k��,0.6,�k,1,90.6,0,0,0,0,0,0,1008.2,1022.8
2020-02-03T01:16:00+09:00,0.3,�k�k��,0.6,�k,1,90.7,0,0,0,0,0,0,1008.2,1022.8
2020-02-03T01:17:00+09:00,0.3,�k�k��,0.6,�k,1.1,91,0,0,0,0,0,0,1008.2,1022.8
2020-02-03T01:18:00+09:00,0.3,�k�k��,0.6,�k,1,90.9,0,0,0,0,0,0,1008.2,1022.8
2020-02-03T01:19:00+09:00,0.3,�k�k��,0.6,�k,1,90.9,0,0,0,0,0,0,1008.2,1022.8
2020-02-03T01:20:00+09:00,0.3,�k�k��,0.6,�k��,1,91,0,0,0,0,0,0,1008.2,1022.8
2020-02-03T01:21:00+09:00,0.3,�k�k��,0.6,�k��,1,91.1,0,0,0,0,0,0,1008.2,1022.8
2020-02-03T01:22:00+09:00,0.3,�k�k��,0.6,�k��,1.1,91.3,0,0,0,0,0,0,1008.2,1022.8
2020-02-03T01:23:00+09:00,0.3,�k�k��,0.7,�k��,1.1,91.5,0,0,0,0,0,0,1008.2,1022.8
2020-02-03T01:24:00+09:00,0.3,�k�k��,0.7,�k��,1.1,91.3,0,0,0,0,0,0,1008.2,1022.8
2020-02-03T01:25:00+09:00,0.2,�É�,0.7,�k��,1,91.2,0,0,0,0,0,0,1008.2,1022.8
2020-02-03T01:26:00+09:00,0.2,�É�,0.7,�k��,1,91,0,0,0,0,0,0,1008.3,1022.9
2020-02-03T01:27:00+09:00,0.2,�É�,0.7,�k��,1,91.1,0,0,0,0,0,0,1008.3,1022.9
2020-02-03T01:28:00+09:00,0.2,�É�,0.7,�k��,1.1,91.2,0,0,0,0,0,0,1008.3,1022.9
2020-02-03T01:29:00+09:00,0.2,�É�,0.7,�k��,1.1,91.3,0,0,0,0,0,0,1008.2,1022.8
2020-02-03T01:30:00+09:00,0.2,�É�,0.7,�k��,1.1,91.3,0,0,0,0,0,0,1008.2,1022.8
2020-02-03T01:31:00+09:00,0.2,�É�,0.7,�k��,1,91.2,0,0,0,0,0,0,1008.2,1022.8
2020-02-03T01:32:00+09:00,0.2,�É�,0.7,�k��,1,91.1,0,0,0,0,0,0,1008.2,1022.8
2020-02-03T01:33:00+09:00,0.2,�É�,0.6,�k��,1,91.1,0,0,0,0,0,0,1008.2,1022.8
2020-02-03T01:34:00+09:00,0.3,�k�k��,0.6,�k��,0.9,91,0,0,0,0,0,0,1008.1,1022.8
2020-02-03T01:35:00+09:00,0.3,�k�k��,0.6,�k��,1,91,0,0,0,0,0,0,1008.1,1022.7
2020-02-03T01:36:00+09:00,0.3,�k�k��,0.6,�k��,0.9,91,0,0,0,0,0,0,1008.1,1022.8
2020-02-03T01:37:00+09:00,0.3,�k�k��,0.6,�k��,1,91.1,0,0,0,0,0,0,1008.1,1022.7
2020-02-03T01:38:00+09:00,0.3,�k�k��,0.6,�k�k��,1,91.1,0,0,0,0,0,0,1008.1,1022.7
2020-02-03T01:39:00+09:00,0.3,�k�k��,0.6,�k�k��,1,91.2,0,0,0,0,0,0,1008.1,1022.7
2020-02-03T01:40:00+09:00,0.3,�k�k��,0.7,�k��,1,91.1,0,0,0,0,0,0,1008,1022.6
2020-02-03T01:41:00+09:00,0.4,�k�k��,0.7,�k��,1,91.1,0,0,0,0,0,0,1008.1,1022.7
2020-02-03T01:42:00+09:00,0.4,�k�k��,0.7,�k��,1,91.1,0,0,0,0,0,0,1008.1,1022.7
2020-02-03T01:43:00+09:00,0.4,�k�k��,0.7,�k��,1.1,90.9,0,0,0,0,0,0,1008,1022.6
2020-02-03T01:44:00+09:00,0.4,�k�k��,0.7,�k��,1,91.1,0,0,0,0,0,0,1008.1,1022.7
2020-02-03T01:45:00+09:00,0.4,�k��,0.7,�k��,0.9,90.7,0,0,0,0,0,0,1008.1,1022.8
2020-02-03T01:46:00+09:00,0.3,�k��,0.7,�k��,0.9,90.6,0,0,0,0,0,0,1008.1,1022.8
2020-02-03T01:47:00+09:00,0.3,�k�k��,0.7,�k��,1,90.7,0,0,0,0,0,0,1008.1,1022.7
2020-02-03T01:48:00+09:00,0.4,�k�k��,0.8,�k�k��,1,90.7,0,0,0,0,0,0,1008,1022.6
2020-02-03T01:49:00+09:00,0.4,�k�k��,0.8,�k�k��,1,90.7,0,0,0,0,0,0,1008,1022.6
2020-02-03T01:50:00+09:00,0.3,�k�k��,0.8,�k�k��,1,90.7,0,0,0,0,0,0,1008,1022.6
2020-02-03T01:51:00+09:00,0.3,�k,0.8,�k�k��,1,90.8,0,0,0,0,0,0,1008,1022.6
2020-02-03T01:52:00+09:00,0.3,�k,0.8,�k�k��,0.9,90.4,0,0,0,0,0,0,1008,1022.7
2020-02-03T01:53:00+09:00,0.3,�k,0.8,�k�k��,0.9,90.3,0,0,0,0,0,0,1008,1022.7
2020-02-03T01:54:00+09:00,0.3,�k,0.8,�k�k��,0.9,90.7,0,0,0,0,0,0,1008,1022.7
2020-02-03T01:55:00+09:00,0.3,�k,0.8,�k�k��,1,90.8,0,0,0,0,0,0,1008.1,1022.7
2020-02-03T01:56:00+09:00,0.3,�k�k��,0.8,�k�k��,1.1,91.2,0,0,0,0,0,0,1008,1022.6
2020-02-03T01:57:00+09:00,0.3,�k�k��,0.8,�k�k��,1.1,91.2,0,0,0,0,0,0,1008.1,1022.7
2020-02-03T01:58:00+09:00,0.3,�k�k��,0.7,�k,1.1,91.2,0,0,0,0,0,0,1008.1,1022.7
2020-02-03T01:59:00+09:00,0.2,�É�,0.7,�k,1.2,91.4,0,0,0,0,0,0,1008.1,1022.7
2020-02-03T02:00:00+09:00,0.3,�k,0.7,�k,1.1,91.3,0,0,0,0,0,0,1008.1,1022.7
2020-02-03T02:01:00+09:00,0.3,�k,0.7,�k,1.2,91.2,0,0,0,0,0,0,1008.1,1022.7
2020-02-03T02:02:00+09:00,0.2,�É�,0.7,�k,1.2,91.3,0,0,0,0,0,0,1008.1,1022.7
2020-02-03T02:03:00+09:00,0.2,�É�,0.9,�k��,1.1,90.8,0,0,0,0,0,0,1008,1022.6
2020-02-03T02:04:00+09:00,0.3,�k,0.9,�k��,1.2,90.8,0,0,0,0,0,0,1008.1,1022.7
2020-02-03T02:05:00+09:00,0.3,�k�k��,0.9,�k��,1.1,90.7,0,0,0,0,0,0,1008,1022.6
2020-02-03T02:06:00+09:00,0.2,�É�,0.9,�k��,1.1,90.4,0,0,0,0,0,0,1008.1,1022.7
2020-02-03T02:07:00+09:00,0.2,�É�,0.9,�k��,1.1,90.5,0,0,0,0,0,0,1008.1,1022.7
2020-02-03T02:08:00+09:00,0.3,�k��,0.9,�k��,1.2,90.8,0,0,0,0,0,0,1008.1,1022.7
2020-02-03T02:09:00+09:00,0.3,�k��,0.9,�k��,1.1,90.9,0,0,0,0,0,0,1008,1022.6
2020-02-03T02:10:00+09:00,0.3,�k��,0.9,�k��,1.1,90.5,0,0,0,0,0,0,1008,1022.6
2020-02-03T02:11:00+09:00,0.3,�k��,0.9,�k��,1.1,90.5,0,0,0,0,0,0,1007.9,1022.5
2020-02-03T02:12:00+09:00,0.3,�k�k��,0.9,�k��,1.1,90.6,0,0,0,0,0,0,1008,1022.6
2020-02-03T02:13:00+09:00,0.3,�k�k��,0.8,���k��,1,90.9,0,0,0,0,0,0,1008,1022.6
2020-02-03T02:14:00+09:00,0.3,�k�k��,0.9,�k,1.1,90.7,0,0,0,0,0,0,1008,1022.6
2020-02-03T02:15:00+09:00,0.3,�k�k��,1,�k,1.1,91.1,0,0,0,0,0,0,1008,1022.6
2020-02-03T02:16:00+09:00,0.3,�k,1,�k,1.1,91.3,0,0,0,0,0,0,1008,1022.6
2020-02-03T02:17:00+09:00,0.3,�k�k��,1,�k,1.1,91.2,0,0,0,0,0,0,1008,1022.6
2020-02-03T02:18:00+09:00,0.2,�É�,1,�k,1,90.8,0,0,0,0,0,0,1008,1022.6
2020-02-03T02:19:00+09:00,0.2,�É�,1,�k,1,90.9,0,0,0,0,0,0,1008,1022.6
2020-02-03T02:20:00+09:00,0.2,�É�,1,�k,1,91.1,0,0,0,0,0,0,1008,1022.6
2020-02-03T02:21:00+09:00,0.3,�k�k��,1,�k,0.9,91,0,0,0,0,0,0,1007.9,1022.5
2020-02-03T02:22:00+09:00,0.3,�k�k��,1,�k,1,91.2,0,0,0,0,0,0,1007.9,1022.5
2020-02-03T02:23:00+09:00,0.3,�k�k��,1,�k,1.1,91.5,0,0,0,0,0,0,1007.9,1022.5
2020-02-03T02:24:00+09:00,0.3,�k��,1,�k,1.2,91.8,0,0,0,0,0,0,1007.9,1022.5
2020-02-03T02:25:00+09:00,0.3,�k��,0.7,���k��,1.2,92,0,0,0,0,0,0,1007.9,1022.5
2020-02-03T02:26:00+09:00,0.3,�k��,0.7,���k��,1.1,92.1,0,0,0,0,0,0,1007.9,1022.5
2020-02-03T02:27:00+09:00,0.3,�k��,0.7,���k��,1.2,91.7,0,0,0,0,0,0,1007.9,1022.5
2020-02-03T02:28:00+09:00,0.4,�k��,0.7,���k��,1.1,92.2,0,0,0,0,0,0,1007.9,1022.5
2020-02-03T02:29:00+09:00,0.4,�k��,0.8,���k��,1.1,91.7,0,0,0,0,0,0,1007.9,1022.5
2020-02-03T02:30:00+09:00,0.5,�k��,0.8,���k��,1.3,92,0,0,0,0,0,0,1007.9,1022.5
2020-02-03T02:31:00+09:00,0.5,�k��,0.8,���k��,1.2,92.2,0,0,0,0,0,0,1007.9,1022.5
2020-02-03T02:32:00+09:00,0.4,�k��,0.8,���k��,1.1,91.8,0,0,0,0,0,0,1007.8,1022.4
2020-02-03T02:33:00+09:00,0.4,�k��,0.8,���k��,1.1,91.5,0,0,0,0,0,0,1007.8,1022.4
2020-02-03T02:34:00+09:00,0.4,�k��,0.8,���k��,1.1,91.3,0,0,0,0,0,0,1007.8,1022.4
2020-02-03T02:35:00+09:00,0.4,�k��,0.8,���k��,1.2,91.9,0,0,0,0,0,0,1007.8,1022.4
2020-02-03T02:36:00+09:00,0.3,�k�k��,0.8,���k��,1.1,92,0,0,0,0,0,0,1007.8,1022.4
2020-02-03T02:37:00+09:00,0.3,�k�k��,0.8,���k��,1.1,91.8,0,0,0,0,0,0,1007.8,1022.4
2020-02-03T02:38:00+09:00,0.3,�k�k��,0.8,���k��,1.2,91.8,0,0,0,0,0,0,1007.8,1022.4
2020-02-03T02:39:00+09:00,0.2,�É�,0.7,�k��,1.2,92.1,0,0,0,0,0,0,1007.8,1022.4
2020-02-03T02:40:00+09:00,0.2,�É�,0.9,�k��,1.1,92.1,0,0,0,0,0,0,1007.8,1022.4
2020-02-03T02:41:00+09:00,0.2,�É�,0.9,�k��,1.1,91.8,0,0,0,0,0,0,1007.8,1022.4
2020-02-03T02:42:00+09:00,0.3,�k,1,�k��,1.3,92.1,0,0,0,0,0,0,1007.8,1022.4
2020-02-03T02:43:00+09:00,0.4,�k,1.3,�k��,1.1,92.3,0,0,0,0,0,0,1007.8,1022.4
2020-02-03T02:44:00+09:00,0.4,�k�k��,1.3,�k��,1.3,91.9,0,0,0,0,0,0,1007.7,1022.3
2020-02-03T02:45:00+09:00,0.4,�k�k��,1.3,�k��,1.3,92.4,0,0,0,0,0,0,1007.7,1022.3
2020-02-03T02:46:00+09:00,0.4,�k�k��,1.3,�k��,1.1,91.9,0,0,0,0,0,0,1007.7,1022.3
2020-02-03T02:47:00+09:00,0.5,�k�k��,1.3,�k��,1.2,91.7,0,0,0,0,0,0,1007.7,1022.3
2020-02-03T02:48:00+09:00,0.5,�k�k��,1.3,�k��,1.5,92.6,0,0,0,0,0,0,1007.7,1022.3
2020-02-03T02:49:00+09:00,0.6,�k��,1.3,�k��,1.4,92.8,0,0,0,0,0,0,1007.7,1022.3
2020-02-03T02:50:00+09:00,0.7,�k��,1.6,�k��,1.2,91.9,0,0,0,0,0,0,1007.7,1022.3
2020-02-03T02:51:00+09:00,0.7,�k��,1.6,�k��,1.2,91.6,0,0,0,0,0,0,1007.7,1022.3
2020-02-03T02:52:00+09:00,0.7,�k��,1.6,�k��,1.2,91.9,0,0,0,0,0,0,1007.8,1022.4
2020-02-03T02:53:00+09:00,0.7,�k��,1.6,�k��,1.1,91.9,0,0,0,0,0,0,1007.8,1022.4
2020-02-03T02:54:00+09:00,0.8,�k��,1.6,�k��,1.2,91.7,0,0,0,0,0,0,1007.8,1022.4
2020-02-03T02:55:00+09:00,0.9,�k�k��,1.6,�k��,1.2,92.1,0,0,0,0,0,0,1007.7,1022.3
2020-02-03T02:56:00+09:00,1,�k�k��,1.6,�k��,1.2,92,0,0,0,0,0,0,1007.7,1022.3
2020-02-03T02:57:00+09:00,1,�k�k��,1.6,�k��,1.1,92,0,0,0,0,0,0,1007.7,1022.3
2020-02-03T02:58:00+09:00,1,�k�k��,1.6,�k��,1.3,92.1,0,0,0,0,0,0,1007.8,1022.4
2020-02-03T02:59:00+09:00,1.1,�k�k��,1.6,�k��,1.3,92.4,0,0,0,0,0,0,1007.8,1022.4
2020-02-03T03:00:00+09:00,1.1,�k�k��,1.6,�k��,1.2,92.5,0,0,0,0,0,0,1007.8,1022.4
2020-02-03T03:01:00+09:00,1.1,�k�k��,1.4,�k�k��,1.1,92.1,0,0,0,0,0,0,1007.7,1022.3
2020-02-03T03:02:00+09:00,1.1,�k�k��,1.8,�k,1.2,92.2,0,0,0,0,0,0,1007.7,1022.3
2020-02-03T03:03:00+09:00,1.1,�k�k��,1.8,�k,1.1,92.2,0,0,0,0,0,0,1007.7,1022.3
2020-02-03T03:04:00+09:00,1.1,�k�k��,1.8,�k,1.1,92,0,0,0,0,0,0,1007.6,1022.2
2020-02-03T03:05:00+09:00,1.1,�k�k��,1.8,�k,1.1,92.2,0,0,0,0,0,0,1007.7,1022.3
2020-02-03T03:06:00+09:00,1.1,�k�k��,1.8,�k,1,92.1,0,0,0,0,0,0,1007.7,1022.3
2020-02-03T03:07:00+09:00,1.1,�k�k��,1.8,�k,1.1,92.3,0,0,0,0,0,0,1007.7,1022.3
2020-02-03T03:08:00+09:00,1.1,�k�k��,1.8,�k,1.1,92.4,0,0,0,0,0,0,1007.7,1022.3
2020-02-03T03:09:00+09:00,1.1,�k�k��,1.8,�k,1.2,92.5,0,0,0,0,0,0,1007.6,1022.2
2020-02-03T03:10:00+09:00,1.1,�k�k��,1.8,�k,1.2,92.8,0,0,0,0,0,0,1007.7,1022.3
2020-02-03T03:11:00+09:00,1.1,�k�k��,1.8,�k,1.1,92.9,0,0,0,0,0,0,1007.7,1022.3
2020-02-03T03:12:00+09:00,1,�k�k��,1.7,�k�k��,1.2,92.8,0,0,0,0,0,0,1007.7,1022.3
2020-02-03T03:13:00+09:00,1,�k�k��,1.7,�k�k��,1.2,92.9,0,0,0,0,0,0,1007.7,1022.3
2020-02-03T03:14:00+09:00,1,�k�k��,1.7,�k�k��,1.2,93.1,0,0,0,0,0,0,1007.7,1022.3
2020-02-03T03:15:00+09:00,1,�k�k��,1.7,�k�k��,1.1,92.8,0,0,0,0,0,0,1007.7,1022.3
2020-02-03T03:16:00+09:00,0.9,�k�k��,1.7,�k�k��,1.1,92.8,0,0,0,0,0,0,1007.7,1022.3
2020-02-03T03:17:00+09:00,0.8,�k�k��,1.7,�k�k��,1.2,92.9,0,0,0,0,0,0,1007.8,1022.4
2020-02-03T03:18:00+09:00,0.8,�k�k��,1.6,�k�k��,1.1,93.1,0,0,0,0,0,0,1007.7,1022.3
2020-02-03T03:19:00+09:00,0.8,�k�k��,2.3,�k,1.3,93.4,0,0,0,0,0,0,1007.7,1022.3
2020-02-03T03:20:00+09:00,0.9,�k�k��,2.3,�k,1.4,93.7,0,0,0,0,0,0,1007.8,1022.4
2020-02-03T03:21:00+09:00,0.9,�k�k��,2.3,�k,1.2,93.8,0,0,0,0,0,0,1007.8,1022.4
2020-02-03T03:22:00+09:00,1,�k�k��,2.3,�k,1.5,93.5,0,0,0,0,0,0,1007.8,1022.4
2020-02-03T03:23:00+09:00,1.1,�k�k��,2.3,�k,1.3,93.8,0,0,0,0,0,0,1007.8,1022.4
2020-02-03T03:24:00+09:00,1,�k�k��,2.3,�k,1.2,93.1,0,0,0,0,0,0,1007.7,1022.3
2020-02-03T03:25:00+09:00,1,�k�k��,2.3,�k,1.1,93,0,0,0,0,0,0,1007.7,1022.3
2020-02-03T03:26:00+09:00,1,�k�k��,2.3,�k,0.9,92.6,0,0,0,0,0,0,1007.7,1022.3
2020-02-03T03:27:00+09:00,1,�k�k��,2.3,�k,1,92.4,0,0,0,0,0,0,1007.7,1022.3
2020-02-03T03:28:00+09:00,0.9,�k�k��,2.3,�k,1,92.9,0,0,0,0,0,0,1007.7,1022.3
2020-02-03T03:29:00+09:00,0.8,�k,1.9,�k�k��,1.1,93.1,0,0,0,0,0,0,1007.7,1022.3
2020-02-03T03:30:00+09:00,0.7,�k,1.9,�k�k��,1.1,93.4,0,0,0,0,0,0,1007.7,1022.3
2020-02-03T03:31:00+09:00,0.6,�k,1.9,�k�k��,1,93.1,0,0,0,0,0,0,1007.6,1022.2
2020-02-03T03:32:00+09:00,0.4,�k,1.9,�k�k��,0.9,92.9,0,0,0,0,0,0,1007.6,1022.2
2020-02-03T03:33:00+09:00,0.4,�k,1.3,�k�k��,0.9,92.7,0,0,0,0,0,0,1007.6,1022.2
2020-02-03T03:34:00+09:00,0.4,�k,1.3,�k�k��,0.9,92.9,0,0,0,0,0,0,1007.6,1022.2
2020-02-03T03:35:00+09:00,0.5,�k,1.4,�k�k��,1,93.3,0,0,0,0,0,0,1007.6,1022.2
2020-02-03T03:36:00+09:00,0.6,�k,1.4,�k�k��,1,93.5,0,0,0,0,0,0,1007.6,1022.2
2020-02-03T03:37:00+09:00,0.6,�k,1.4,�k�k��,1,93.6,0,0,0,0,0,0,1007.6,1022.2
2020-02-03T03:38:00+09:00,0.6,�k,1.4,�k�k��,1,93.8,0,0,0,0,0,0,1007.6,1022.2
2020-02-03T03:39:00+09:00,0.7,�k�k��,1.4,�k�k��,1,93.8,0,0,0,0,0,0,1007.6,1022.2
2020-02-03T03:40:00+09:00,0.8,�k�k��,1.4,�k�k��,1,93.7,0,0,0,0,0,0,1007.6,1022.2
2020-02-03T03:41:00+09:00,0.8,�k�k��,1.4,�k�k��,1,93.8,0,0,0,0,0,0,1007.6,1022.2
2020-02-03T03:42:00+09:00,0.9,�k�k��,1.4,�k�k��,1,93.7,0,0,0,0,0,0,1007.6,1022.2
2020-02-03T03:43:00+09:00,0.9,�k�k��,1.4,�k�k��,0.9,93.7,0,0,0,0,0,0,1007.6,1022.2
2020-02-03T03:44:00+09:00,0.8,�k�k��,1.4,�k�k��,1,93.7,0,0,0,0,0,0,1007.6,1022.2
2020-02-03T03:45:00+09:00,0.8,�k�k��,1.4,�k�k��,1,93.9,0,0,0,0,0,0,1007.6,1022.2
2020-02-03T03:46:00+09:00,0.7,�k�k��,1.4,�k�k��,1,93.9,0,0,0,0,0,0,1007.6,1022.2
2020-02-03T03:47:00+09:00,0.6,�k�k��,1.4,�k�k��,0.8,93.8,0,0,0,0,0,0,1007.6,1022.2
2020-02-03T03:48:00+09:00,0.6,�k�k��,1.4,�k�k��,0.7,93.3,0,0,0,0,0,0,1007.6,1022.3
2020-02-03T03:49:00+09:00,0.5,�k�k��,1.4,�k�k��,0.8,93.6,0,0,0,0,0,0,1007.6,1022.2
2020-02-03T03:50:00+09:00,0.4,�k,0.9,�k�k��,0.8,93.7,0,0,0,0,0,0,1007.7,1022.4
2020-02-03T03:51:00+09:00,0.4,�k,0.9,�k�k��,0.7,93.7,0,0,0,0,0,0,1007.6,1022.3
2020-02-03T03:52:00+09:00,0.4,�k,0.9,�k�k��,0.7,93.8,0,0,0,0,0,0,1007.7,1022.4
2020-02-03T03:53:00+09:00,0.3,�k,0.9,�k�k��,0.9,93.9,0,0,0,0,0,0,1007.6,1022.2
2020-02-03T03:54:00+09:00,0.3,�k,0.8,�k�k��,1,94.4,0,0,0,0,0,0,1007.6,1022.2
2020-02-03T03:55:00+09:00,0.2,�É�,0.8,�k��,0.9,94.6,0,0,0,0,0,0,1007.6,1022.2
2020-02-03T03:56:00+09:00,0.2,�É�,0.8,�k��,0.7,94.1,0,0,0,0,0,0,1007.6,1022.3
2020-02-03T03:57:00+09:00,0.2,�É�,0.8,�k��,0.7,93.6,0,0,0,0,0,0,1007.6,1022.3
2020-02-03T03:58:00+09:00,0.2,�É�,1.2,�k��,0.7,93.9,0,0,0,0,0,0,1007.6,1022.3
2020-02-03T03:59:00+09:00,0.2,�É�,1.2,�k��,0.8,94.3,0,0,0,0,0,0,1007.6,1022.2
2020-02-03T04:00:00+09:00,0.3,�k,1.2,�k��,0.8,94.4,0,0,0,0,0,0,1007.6,1022.2
2020-02-03T04:01:00+09:00,0.2,�É�,1.2,�k��,0.9,94.6,0,0,0,0,0,0,1007.5,1022.1
2020-02-03T04:02:00+09:00,0.2,�É�,1.2,�k��,1,94.7,0,0,0,0,0,0,1007.6,1022.2
2020-02-03T04:03:00+09:00,0.2,�É�,1.2,�k��,1.1,94.9,0,0,0,0,0,0,1007.6,1022.2
2020-02-03T04:04:00+09:00,0.2,�É�,1.2,�k��,1.1,95.2,0,0,0,0,0,0,1007.6,1022.2
2020-02-03T04:05:00+09:00,0.1,�É�,1.2,�k��,0.9,94.8,0,0,0,0,0,0,1007.6,1022.2
2020-02-03T04:06:00+09:00,0.2,�É�,1.2,�k��,0.9,94.4,0,0,0,0,0,0,1007.5,1022.1
2020-02-03T04:07:00+09:00,0.2,�É�,1.2,�k��,0.8,94.3,0,0,0,0,0,0,1007.5,1022.1
2020-02-03T04:08:00+09:00,0.1,�É�,0.9,�k��,0.8,94.1,0,0,0,0,0,0,1007.6,1022.2
2020-02-03T04:09:00+09:00,0.1,�É�,0.9,�k��,0.7,94.2,0,0,0,0,0,0,1007.6,1022.3
2020-02-03T04:10:00+09:00,0.1,�É�,0.7,��쐼,0.5,93.9,0,0,0,0,0,0,1007.5,1022.2
2020-02-03T04:11:00+09:00,0.1,�É�,0.7,��쐼,0.7,93.6,0,0,0,0,0,0,1007.5,1022.2
2020-02-03T04:12:00+09:00,0.1,�É�,0.9,��,0.7,94.1,0,0,0,0,0,0,1007.5,1022.2
2020-02-03T04:13:00+09:00,0.2,�É�,0.9,��,0.8,94.4,0,0,0,0,0,0,1007.5,1022.1
2020-02-03T04:14:00+09:00,0.2,�É�,0.9,��,0.8,94.7,0,0,0,0,0,0,1007.5,1022.1
2020-02-03T04:15:00+09:00,0.3,��,1,��,0.8,94.6,0,0,0,0,0,0,1007.5,1022.1
2020-02-03T04:16:00+09:00,0.3,��,1,��,0.6,94.3,0,0,0,0,0,0,1007.5,1022.2
2020-02-03T04:17:00+09:00,0.3,��,1,��,0.4,93.5,0,0,0,0,0,0,1007.5,1022.2
2020-02-03T04:18:00+09:00,0.4,��,1.6,��,0.4,93.3,0,0,0,0,0,0,1007.5,1022.2
2020-02-03T04:19:00+09:00,0.4,��,1.6,��,0.4,93.7,0,0,0,0,0,0,1007.5,1022.2
2020-02-03T04:20:00+09:00,0.5,��,1.6,��,0.3,93.8,0,0,0,0,0,0,1007.5,1022.2
2020-02-03T04:21:00+09:00,0.5,��,1.6,��,0.4,93.8,0,0,0,0,0,0,1007.6,1022.3
2020-02-03T04:22:00+09:00,0.5,��,1.6,��,0.3,93.9,0,0,0,0,0,0,1007.5,1022.2
2020-02-03T04:23:00+09:00,0.5,���쐼,1.6,��,0.7,94.3,0,0,0,0,0,0,1007.5,1022.2
2020-02-03T04:24:00+09:00,0.6,���쐼,1.6,��,0.8,95.1,0,0,0,0,0,0,1007.5,1022.1
2020-02-03T04:25:00+09:00,0.6,���쐼,1.6,��,0.4,94.9,0,0,0,0,0,0,1007.5,1022.2
2020-02-03T04:26:00+09:00,0.6,���쐼,1.6,��,0.4,94.2,0,0,0,0,0,0,1007.6,1022.3
2020-02-03T04:27:00+09:00,0.6,���쐼,1.6,��,0.6,94.4,0,0,0,0,0,0,1007.6,1022.3
2020-02-03T04:28:00+09:00,0.5,���쐼,1.6,��,0.6,94.8,0,0,0,0,0,0,1007.6,1022.3
2020-02-03T04:29:00+09:00,0.6,�쐼,1.6,��,0.8,95.1,0,0,0,0,0,0,1007.5,1022.1
2020-02-03T04:30:00+09:00,0.6,�쐼,1.6,��,0.7,95.3,0,0,0,0,0,0,1007.5,1022.2
2020-02-03T04:31:00+09:00,0.6,�쐼,1.6,��,0.4,94.8,0,0,0,0,0,0,1007.5,1022.2
2020-02-03T04:32:00+09:00,0.6,�쐼,1.6,��,0.4,94.4,0,0,0,0,0,0,1007.5,1022.2
2020-02-03T04:33:00+09:00,0.6,�쐼,1.4,��,0.5,94.1,0,0,0,0,0,0,1007.5,1022.2
2020-02-03T04:34:00+09:00,0.5,��쐼,1.2,��,0.6,94.6,0,0,0,0,0,0,1007.5,1022.2
2020-02-03T04:35:00+09:00,0.5,��쐼,1.1,��쐼,0.7,95.2,0,0,0,0,0,0,1007.5,1022.2
2020-02-03T04:36:00+09:00,0.4,��쐼,1.1,��쐼,0.4,94.8,0,0,0,0,0,0,1007.5,1022.2
2020-02-03T04:37:00+09:00,0.4,��쐼,1.1,��쐼,0.3,94.4,0,0,0,0,0,0,1007.5,1022.2
2020-02-03T04:38:00+09:00,0.5,��쐼,1.2,��,0.4,94.4,0,0,0,0,0,0,1007.5,1022.2
2020-02-03T04:39:00+09:00,0.5,�쐼,1.2,��,0.5,94.9,0,0,0,0,0,0,1007.5,1022.2
2020-02-03T04:40:00+09:00,0.4,�쐼,1.2,��,0.3,94.6,0,0,0,0,0,0,1007.5,1022.2
2020-02-03T04:41:00+09:00,0.5,�쐼,1.3,���쐼,0.3,94.3,0,0,0,0,0,0,1007.5,1022.2
2020-02-03T04:42:00+09:00,0.5,�쐼,1.3,���쐼,0.3,94.5,0,0,0,0,0,0,1007.5,1022.2
2020-02-03T04:43:00+09:00,0.5,�쐼,1.3,���쐼,0.4,94.7,0,0,0,0,0,0,1007.5,1022.2
2020-02-03T04:44:00+09:00,0.5,�쐼,1.3,���쐼,0.3,94.8,0,0,0,0,0,0,1007.5,1022.2
2020-02-03T04:45:00+09:00,0.5,�쐼,1.3,���쐼,0.4,94.9,0,0,0,0,0,0,1007.5,1022.2
2020-02-03T04:46:00+09:00,0.5,�쐼,1.3,���쐼,0.3,94.9,0,0,0,0,0,0,1007.5,1022.2
2020-02-03T04:47:00+09:00,0.5,���쐼,1.3,���쐼,0.4,95.1,0,0,0,0,0,0,1007.5,1022.2
2020-02-03T04:48:00+09:00,0.5,���쐼,1.3,���쐼,0.6,95.2,0,0,0,0,0,0,1007.5,1022.2
2020-02-03T04:49:00+09:00,0.5,���쐼,1.3,���쐼,0.6,95.5,0,0,0,0,0,0,1007.5,1022.2
2020-02-03T04:50:00+09:00,0.5,���쐼,1.3,���쐼,0.6,95.5,0,0,0,0,0,0,1007.5,1022.2
2020-02-03T04:51:00+09:00,0.4,���쐼,1.2,��,0.4,95.3,0,0,0,0,0,0,1007.5,1022.2
2020-02-03T04:52:00+09:00,0.4,���쐼,1.2,��,0.4,94.9,0,0,0,0,0,0,1007.4,1022.1
2020-02-03T04:53:00+09:00,0.3,���쐼,1.2,��,0.5,95.1,0,0,0,0,0,0,1007.5,1022.2
2020-02-03T04:54:00+09:00,0.3,���쐼,1.2,��,0.5,95.2,0,0,0,0,0,0,1007.5,1022.2
2020-02-03T04:55:00+09:00,0.4,��,1.2,��,0.6,95.3,0,0,0,0,0,0,1007.5,1022.2
2020-02-03T04:56:00+09:00,0.5,��,1.2,��,0.6,95.4,0,0,0,0,0,0,1007.5,1022.2
2020-02-03T04:57:00+09:00,0.5,��,1.3,��,0.5,95.3,0,0,0,0,0,0,1007.5,1022.2
2020-02-03T04:58:00+09:00,0.5,���쐼,1.4,���쐼,0.4,95.1,0,0,0,0,0,0,1007.5,1022.2
2020-02-03T04:59:00+09:00,0.6,��,1.4,���쐼,0.5,95.1,0,0,0,0,0,0,1007.5,1022.2
2020-02-03T05:00:00+09:00,0.5,���쐼,1.4,���쐼,0.4,95.2,0,0,0,0,0,0,1007.5,1022.2
2020-02-03T05:01:00+09:00,0.6,���쐼,1.4,���쐼,0.4,95.1,0,0,0,0,0,0,1007.5,1022.2